カタログに戻る

STARLINK-32346

運用中通信VLEO
NORAD 61849·PAYLOAD·🇺🇸 United States

打ち上げ Nov 7, 2024 から Cape Canaveral Space Force Station

Loading…

次のパス (今後24時間)

TLE

最新Source: CelesTrak SupGP

元期: Sep 15, 2026, 02:40 UTC

1 61849C 24202E   26258.11159722 -.00034969  00000+0 -12668-2 0  2584
2 61849  42.9993 237.1893 0001321 267.8817 138.2914 15.27590642    15

AllMySatでSTARLINK-32346をリアルタイム追跡

Download on the App Store